Regional Weather Roundup
Issued by NWS

Home | Current Version | Previous Version | Text Only | Print | Product List | Glossary Off
Versions: 1 2 3 4 5 6 7 8 9 10 11 12 13 14 15 16 17 18 19 20 21 22 23 24 25 26 27 28 29 30 31 32 33 34 35 36 37 38 39 40 41 42 43 44 45 46 47 48 49 50

408
ASUS43 KMKX 280700
RWRWI

WISCONSIN REGIONAL WEATHER ROUNDUP
NATIONAL WEATHER SERVICE MILWAUKEE/SULLIVAN WI
200 AM CDT FRI APR 28 2017

NOTE: "FAIR" INDICATES FEW OR NO CLOUDS BELOW 12,000 FEET WITH NO
SIGNIFICANT WEATHER AND/OR OBSTRUCTIONS TO VISIBILITY.

WIZ001-002-006>008-014>016-023>028-280800-
NORTHWEST WISCONSIN

CITY           SKY/WX    TMP DP  RH WIND       PRES   REMARKS
SUPERIOR ARPT  CLOUDY    31  25  80 W7        29.72S WCI  24
ASHLAND        CLOUDY    29  24  82 SW9       29.71R WCI  20
HAYWARD        CLOUDY    30  26  85 SW7       29.72S WCI  23
SIREN          CLOUDY    32  26  78 W9        29.76R WCI  24
CUMBERLAND     CLOUDY    32  23  69 W8        29.74S WCI  25
RICE LAKE      CLOUDY    32  25  76 SW6       29.77S WCI  26
CHETEK         NOT AVBL
LADYSMITH      CLOUDY    31  27  84 SW10      29.76R WCI  22
EAU CLAIRE     NOT AVBL
MENOMONIE      CLOUDY    34  26  72 SW8       29.79S WCI  27
NEW RICHMOND   CLOUDY    33  24  69 W12       29.78S WCI  24
OSCEOLA        CLOUDY    33  26  73 W10G18    29.81S WCI  25
$$

WIZ003>005-009-010-017-018-280800-
NORTH CENTRAL WISCONSIN

CITY           SKY/WX    TMP DP  RH WIND       PRES   REMARKS
MANITOWISH WTR CLOUDY    27  26  95 SW7       29.67S WCI  19
ARBOR VITAE    CLOUDY    29  26  88 W7G16     29.68R WCI  22
WOODRUFF       CLOUDY    29  26  88 W7G16     29.68R WCI  22
RHINELANDER    CLOUDY    29  24  82 W14       29.70R WCI  18
EAGLE RIVER    CLOUDY    28  22  78 W9G17     29.67S WCI  19
LAND O LAKES   CLOUDY    28  23  83 W6        29.68R WCI  21
PHILLIPS       MIX PCPN  28  26  96 W3        29.70S
TOMAHAWK       CLOUDY    28  23  80 W3        29.72S
MEDFORD        CLOUDY    29  23  78 W10G17    29.74S WCI  20
MERRILL        CLOUDY    30  24  79 W14       29.74S WCI  19
$$

WIZ029-030-035-036-043>047-280800-
CENTRAL WISCONSIN

CITY           SKY/WX    TMP DP  RH WIND       PRES   REMARKS
WAUSAU         CLOUDY    30  25  81 W16G23    29.75R WCI  19
MOSINEE        CLOUDY    32  30  93 W13G18    29.77R WCI  22
MARSHFIELD     CLOUDY    31  26  82 W12       29.76R WCI  22
STEVENS POINT  MIX PCPN  31  30  94 W12G17    29.78R WCI  22
WAUPACA        CLOUDY    37  32  81 SW9       29.78S WCI  31
WAUTOMA        CLOUDY    35  31  85 W14       29.80R WCI  26
WISC RAPIDS    CLOUDY    33  30  88 W12G20    29.79S WCI  24
CAMP DOUGLAS   NOT AVBL
$$

WIZ011>013-019>022-031-037>040-048>050-280800-
NORTHEAST WISCONSIN

CITY           SKY/WX    TMP DP  RH WIND       PRES   REMARKS
ANTIGO         CLOUDY    29  26  87 W21G29    29.72S WCI  16
SHAWANO        CLOUDY    37  31  81 W10       29.75S WCI  29
OCONTO         CLOUDY    36  30  81 W7        29.75S WCI  30
STURGEON BAY   LGT RAIN  36  32  85 W10       29.76R WCI  28
GREEN BAY      CLOUDY    38  33  82 W15       29.77R WCI  29
MANITOWOC      NOT AVBL
APPLETON       LGT RAIN  34  32  93 W12       29.77R WCI  25
CLINTONVILLE   FLURRIES  34  32  93 W10G20    29.77R WCI  26
OSHKOSH        CLOUDY    38  30  73 W12G21    29.79R WCI  30
$$

WIZ032>034-041-042-053>061-280800-
SOUTHWEST WISCONSIN

CITY           SKY/WX    TMP DP  RH WIND       PRES   REMARKS
LA CROSSE      CLOUDY    38  28  67 W12       29.84R WCI  30
SPARTA         CLOUDY    35  30  80 W7        29.82S WCI  29
VIROQUA        CLOUDY    34  30  85 W10G17    29.82R WCI  26
BOSCOBEL       CLOUDY    39  30  70 VRB7      29.86R WCI  34
PRAIRIE DU CHI MOCLDY    37  28  69 W10G20    29.86S WCI  30
PLATTEVILLE    CLOUDY    32  32  99 SW7       29.86R WCI  26
$$

WIZ056-057-062-063-064-067-068-280800-
SOUTH CENTRAL WISCONSIN

CITY           SKY/WX    TMP DP  RH WIND       PRES   REMARKS
REEDSBURG      NOT AVBL
BARABOO/DELLS  CLOUDY    36  29  75 W13G20    29.81S WCI  27
LONE ROCK      NOT AVBL
MINERAL POINT  CLEAR     36  32  87 W10       29.84R WCI  28
MADISON        CLOUDY    38  30  73 VRB6      29.83R WCI  33
MIDDLETON      CLOUDY    39  31  75 W6        29.84R WCI  35
WATERTOWN      CLOUDY    38  32  78 SW9       29.83R WCI  32
MONROE         CLEAR     34  32  93 SW9       29.85R WCI  26
JANESVILLE     CLEAR     36  36 100 SW7       29.86S WCI  30
$$

WIZ051-052-058>065-066-070>072-280800-
SOUTHEAST WISCONSIN

CITY           SKY/WX    TMP DP  RH WIND       PRES   REMARKS
MILWAUKEE      MOCLDY    41  31  67 W10       29.84R
WAUKESHA       MOCLDY    36  28  75 W13G23    29.84S WCI  27
MILWAUKEE/TIMM CLOUDY    37  28  70 SW13G22   29.84R WCI  29
RACINE         CLOUDY    43  32  65 W14       29.86R
KENOSHA        PTCLDY    41  33  73 W13       29.85S
FOND DU LAC    CLOUDY    38  31  76 W9        29.80R WCI  31
SHEBOYGAN      CLOUDY    40  34  79 SW10      29.80R WCI  33
WEST BEND      CLOUDY    37  32  81 W13       29.81S WCI  29
JUNEAU         CLOUDY    37  31  78 SW10      29.82S WCI  30
$$

LSZ147-162-280800-
LAKE SUPERIOR

STATION/POSITION TIME  TEMP    WIND        PRES    WAVE
                       AIR SEA DIR/SP/G            HT/PER
                 (UTC) (F)     (DEG/KT/KT) (MB)    (FT/S)
DEVILS ISLAND    0600   32     260/ 19/ 23 1005.3R
PORT WING        0640   32     250/ 10/ 19 1006.1R
SAXON HARBOR     0630   30     210/  5/ 11 1005.8S
$$

LMZ867-665-643>646-280800-
LAKE MICHIGAN

STATION/POSITION TIME  TEMP    WIND        PRES    WAVE
                       AIR SEA DIR/SP/G            HT/PER
                 (UTC) (F)     (DEG/KT/KT) (MB)    (FT/S)
CHAMBERS ISLAND  0640   36     220/  8/ 17 1007.1R
N MID LAKE BUOY  0550   38 37  240/ 19/ 21 1007.3R   3/ 6
NORTHPORT PIER   0640   36     280/  8/ 15 1007.1S
SISTER BAY       0621   38     290/ 18/ 20   N/A
KEWAUNEE LAKESHO 0630   39     250/  6/ 13 1007.8R
SHEBOYGAN LAKESH 0600   41     240/ 14/ 16 1009.2R
PORT WASHINGTON  0640   41     260/ 11/ 19 1010.8R
MILWAUKEE LAKESH 0640   41     260/  7/ 10   N/A
S MID LAKE BUOY  0550   43 41  250/ 14/ 17 1011.3R   3/ 4
KENOSHA   LAKESH 0600   44     250/ 12/ 16 1011.2
$$

TC  - TEMPERATURE IN CELSIUS
VSB - VISIBILITY IN STATUTE MILES
WCI - WIND CHILL INDEX
HX  - HEAT INDEX





USA.gov is the U.S. government's official web portal to all federal, state and local government web resources and services.